sat.trackr.live / text

‹ back to catalog

IRIDIUM 111

NORAD 41926 · 2017-003K

PAYLOAD ACTIVE UNKNOWN

§ Identity

Operator
Country
US
Launch date
2017-01-14
Launch site
AFWTR
Launch vehicle
Mass (kg)
RCS (m²)
2.63

Purposes: comms

External: N2YO · Heavens-Above · Gunter

§ Orbital elements

Epoch: 2026-09-20T03:29:38.677920Z

Period
100.40 min
Inclination
86.3948°
Eccentricity
0.0002130
Mean motion
14.34217378 rev/d
Perigee alt
776.1 km
Apogee alt
779.2 km
Semi-major
7,155.8 km
B*
5.1738e-5
RAAN
48.6424°
Arg perigee
90.7679°
Mean anomaly
269.3761°
Rev number
50,686

§ Raw data

IRIDIUM 1111 41926U 17003K   26263.14558655  .00000165  00000+0  51738-4 0  99902 41926  86.3948  48.6424 0002130  90.7679 269.3761 14.34217378506863

JSON: /api/v1/satellites/41926 · /tle

For live sub-satellite position, see the globe view (requires WebGL).

§ Visibility from observer

Set your observer location to see the next 7 days of passes ≥ 10°. The values pass through the URL so the page stays shareable.

No JS? Fill the form by hand. The geolocation button needs JavaScript.